Regional Weather Roundup
Issued by NWS

Home | Current Version | Previous Version | Graphics & Text | Print | Product List | Glossary On
Versions: 1 2 3 4 5 6 7 8 9 10 11 12 13 14 15 16 17 18 19 20 21 22 23 24 25 26 27 28 29 30 31 32 33 34 35 36 37 38 39 40 41 42 43 44 45 46 47 48 49 50
000
ASUS43 KDTX 282201
RWRMI
MICHIGAN HOURLY REGIONAL WEATHER ROUNDUP
NATIONAL WEATHER SERVICE DETROIT/PONTIAC MI
600 PM EDT TUE JUL 28 2015

NOTE: "FAIR" INDICATES FEW OR NO CLOUDS BELOW 12,000 FEET WITH NO
SIGNIFICANT WEATHER AND/OR OBSTRUCTION TO VISIBILITY.

MIZ047>049-052>055-059>063-066>070-074>076-081>083-282300-
SOUTHEAST LOWER MICHIGAN

CITY           SKY/WX    TMP DP  RH WIND       PRES   REMARKS
ADRIAN         PTSUNNY   85  63  47 SE7       29.99F
ALMA           CLOUDY    87  63  44 SE5       29.97F
ANN ARBOR      PTSUNNY   84  59  42 S6        29.98F
BAD AXE        CLOUDY    84  63  48 E5        30.00F
CARO           PTSUNNY   89  62  41 CALM      29.97F
DETROIT CITY   CLOUDY    86  63  45 SE10      29.98F
DETROIT        CLOUDY    88  61  40 SE10      29.98F
FLINT          PTSUNNY   90  61  37 S5        29.98F HX  90
GROSSE ILE     PTSUNNY   82  70  65 S6        29.97F
HILLSDALE      PTSUNNY   87  62  43 SE3       30.01S
HOWELL         PTSUNNY   86  57  37 S3        29.99F

CITY           SKY/WX    TMP DP  RH WIND       PRES   REMARKS
JACKSON        PTSUNNY   87  60  40 S8        29.99F
LAMBERTVILLE   PTSUNNY   84  64  50 E3        29.99S
LANSING        PTSUNNY   87  62  43 VRB6      29.98F
LAPEER         FAIR      88  58  35 SE3       29.99F
MASON          PTSUNNY   85  62  46 SE6       29.99F
MONROE         PTSUNNY   85  65  51 E3        29.97F
MT. CLEMENS    PTSUNNY   86  65  49 SE7       29.97F
PONTIAC        PTSUNNY   88  58  36 E8        29.98F
PORT HOPE        N/A     79  70  74 E8        29.99F
PORT HURON     CLOUDY    84  68  58 SW3       29.99F
TRI CITIES     CLOUDY    89  62  40 S6        29.98F
MIDLAND        FAIR      90  60  36 S8        29.96F
TROY           CLOUDY    90  56  31 E9        30.00F
SAGINAW HB     PTSUNNY   90  61  37 SW3       29.97F
$$
MIZ043>046-050>051-056>058-064>065-071>073-077>080-282300-
SOUTHWEST LOWER MICHIGAN

CITY           SKY/WX    TMP DP  RH WIND       PRES   REMARKS
BATTLE CREEK   MOSUNNY   88  63  43 S8        29.99F
BENTON HARBOR  PTSUNNY   86  69  56 SE7       29.92F HX  90
BIG RAPIDS     MOSUNNY   87  55  33 SE10      29.96F
COLDWATER      MOSUNNY   84  62  48 SE6       29.98F
FREMONT        FAIR      87  50  27 SE7       29.94F
HOLLAND        SUNNY     89  65  44 SE8       29.94F HX  91
GRAND RAPIDS   PTSUNNY   89  62  40 SE9       29.96F
IONIA          FAIR      88  64  44 SE7       29.97F
KALAMAZOO      MOSUNNY   88  63  43 SE6       29.97F
MARSHALL       MOSUNNY   87  64  46 SE5       29.98F
MOUNT PLEASANT PTSUNNY   88  57  34 S7        29.97F
MUSKEGON       PTSUNNY   86  60  41 S5        29.92F
SOUTH HAVEN    MOSUNNY   87  66  48 SE5       29.93F
$$
MIZ016>042-282300-
NORTHERN LOWER MICHIGAN

CITY           SKY/WX    TMP DP  RH WIND       PRES   REMARKS
ALPENA         PTSUNNY   88  63  43 SE12      29.96F
BEAVER ISLAND  PTSUNNY   82  61  48 NW3       29.96F
BELLAIRE       PTSUNNY   85  62  46 CALM      29.95F
CADILLAC       PTSUNNY   87  56  35 SE12      29.98S
CHARLEVOIX     PTSUNNY   78  63  58 NW3       29.99F
FRANKFORT      MOSUNNY   85  61  45 W7        29.92F
GAYLORD        PTSUNNY   89  57  33 S10       29.98F
GRAYLING       PTSUNNY   89  60  38 S5        29.99F
HARBOR SPRINGS PTSUNNY   77  67  69 SW5       29.96F
HOUGHTON LAKE  PTSUNNY   88  61  40 S8        29.99F
MANISTEE       MOSUNNY   86  61  42 S6        29.93F
OSCODA         PTSUNNY   86  62  44 SE9       29.97F
PELLSTON       CLOUDY    86  61  42 NW9       29.97F
ROGERS CITY    PTSUNNY   89  61  39 SE13      29.96F
TRAVERSE CITY  PTSUNNY   84  67  56 N8        29.93S
$$
MIZ007>008-015-282300-
EASTERN UPPER MICHIGAN

CITY           SKY/WX    TMP DP  RH WIND       PRES   REMARKS
KINROSS        MOSUNNY   90  57  33 S3        29.95F
MACKINAC ISLAN PTSUNNY   85  58  40 SW5       29.97S
MUNISING         N/A     86  60  41 S14G22    29.89F
$$
MIZ004>006-011>014-085-282300-
CENTRAL UPPER MICHIGAN

CITY           SKY/WX    TMP DP  RH WIND       PRES   REMARKS
MANISTIQUE     PTSUNNY   77  63  61 SE6       29.94F
ESCANABA       CLOUDY    79  64  61 SE10      29.91F
MENOMINEE      CLOUDY    81  61  50 S15       29.90S
SAWYER-GWINN   SUNNY     70  61  73 S18G24    29.91F
$$
MIZ001>003-009>011-084-282300-
WESTERN UPPER MICHIGAN

CITY           SKY/WX    TMP DP  RH WIND       PRES   REMARKS
IRON MOUNTAIN  PTSUNNY   84  63  49 S13G20    29.90F
HOUGHTON       CLOUDY    80  62  54 S13       29.85F
COPPER HARBOR    N/A     80  62  54 SW8G21    29.82F
IRONWOOD       PTSUNNY   84  68  58 S14       29.80S
$$

ABBREVIATIONS USED IN REMARKS
   TC - TEMPERATURE IN CELSIUS
  WCI - WIND CHILL INDEX
   HX - HEAT INDEX
  VSB - VISIBILITY




USA.gov is the U.S. government's official web portal to all federal, state and local government web resources and services.